Location: Clinton NY
(43.0598°N, 75.3602°W)
Time: 23:37:54
(UTC-04:00)

ISS - All Passes

Search period start: 24 July 2014 00:00
Search period end: 03 August 2014 00:00
Orbit: 411 x 419 km, 51.6° (Epoch: 24 July)

Date Brightness Start Highest point End Pass type
(mag) Time Alt. Az. Time Alt. Az. Time Alt. Az.
24 Jul - 01:22:08 10° SSW 01:24:54 24° SE 01:27:42 10° E visible
24 Jul - 02:58:12 10° WSW 03:01:28 48° NNW 03:04:44 10° NE visible
24 Jul - 04:36:12 10° WNW 04:38:46 20° N 04:41:20 10° NE visible
24 Jul - 06:13:34 10° NW 06:16:19 23° NNE 06:19:03 10° ENE daylight
24 Jul - 07:50:04 10° NW 07:53:27 77° NNE 07:56:48 10° ESE daylight
24 Jul - 09:27:53 10° W 09:29:46 14° SW 09:31:39 10° SSW daylight
25 Jul - 00:34:23 10° SSE 00:36:19 15° SE 00:38:15 10° E night (unlit)
25 Jul - 02:09:18 10° WSW 02:12:39 75° NNW 02:16:01 10° NE visible
25 Jul - 03:47:04 10° WNW 03:49:47 22° NNW 03:52:31 10° NE visible
25 Jul - 05:24:46 10° NW 05:27:21 20° N 05:29:55 10° ENE daylight
25 Jul - 07:01:21 10° NW 07:04:38 49° NNE 07:07:55 10° ESE daylight
25 Jul - 08:38:25 10° W 08:41:12 24° SW 08:43:57 10° SSE daylight
26 Jul - 01:20:36 10° SW 01:23:55 66° SE 01:27:15 10° ENE visible
26 Jul - 02:57:56 10° WNW 03:00:52 27° NNW 03:03:49 10° NE visible
26 Jul - 04:35:54 10° NW 04:38:23 19° N 04:40:51 10° NE visible
26 Jul - 06:12:41 10° NW 06:15:48 34° NNE 06:18:55 10° E daylight
26 Jul - 07:49:23 10° WNW 07:52:35 41° SW 07:55:45 10° SSE daylight
27 Jul - 00:32:09 10° SSW 00:35:16 37° SE 00:38:25 10° ENE visible
27 Jul - 02:08:53 10° W 02:12:01 36° NNW 02:15:10 10° NE visible
27 Jul - 03:46:57 10° NW 03:49:26 19° N 03:51:55 10° NE visible
27 Jul - 05:24:02 10° NW 05:26:57 26° NNE 05:29:52 10° ENE daylight
27 Jul - 07:00:35 10° WNW 07:03:56 71° SW 07:07:17 10° SE daylight
27 Jul - 23:44:03 10° S 23:46:43 22° SE 23:49:24 10° E night (unlit)
28 Jul - 01:19:58 10° WSW 01:23:15 51° NNW 01:26:33 10° NE visible
28 Jul - 02:57:56 10° WNW 03:00:31 20° N 03:03:07 10° NE visible
28 Jul - 04:35:23 10° NW 04:38:05 22° NNE 04:40:48 10° ENE visible
28 Jul - 06:11:53 10° NW 06:15:16 70° NNE 06:18:37 10° ESE daylight
28 Jul - 07:49:30 10° W 07:51:38 16° SW 07:53:45 10° S daylight
28 Jul - 22:56:35 10° SSE 22:58:15 13° SE 22:59:56 10° E night (unlit)
29 Jul - 00:31:12 10° WSW 00:34:33 82° NNW 00:37:55 10° NE visible
29 Jul - 02:08:54 10° WNW 02:11:40 23° NNW 02:14:26 10° NE visible
29 Jul - 03:46:40 10° NW 03:49:13 20° N 03:51:46 10° NE visible
29 Jul - 05:23:17 10° NW 05:26:33 45° NNE 05:29:49 10° ESE daylight
29 Jul - 07:00:16 10° WNW 07:03:09 26° SW 07:06:01 10° SSE daylight
29 Jul - 23:42:39 10° SW 23:45:56 59° SE 23:49:15 10° ENE night (unlit)
30 Jul - 01:19:54 10° W 01:22:52 28° NNW 01:25:51 10° NE visible
30 Jul - 02:57:54 10° NW 03:00:22 19° N 03:02:50 10° NE visible
30 Jul - 04:34:44 10° NW 04:37:49 32° NNE 04:40:54 10° E visible
30 Jul - 06:11:24 10° WNW 06:14:38 45° SW 06:17:52 10° SE daylight
30 Jul - 22:54:21 10° SSW 22:57:25 34° SE 23:00:30 10° ENE night (unlit)
31 Jul - 00:30:58 10° W 00:34:08 38° NNW 00:37:18 10° NE visible
31 Jul - 02:09:03 10° NW 02:11:32 19° N 02:14:02 10° NE visible
31 Jul - 03:46:11 10° NW 03:49:04 25° NNE 03:51:57 10° ENE visible
31 Jul - 05:22:43 10° WNW 05:26:06 78° SW 05:29:27 10° SE daylight
31 Jul - 22:06:26 10° S 22:08:59 20° SE 22:11:33 10° E night (unlit)
31 Jul - 23:42:11 10° WSW 23:45:28 55° NNW 23:48:48 10° NE night (unlit)
01 Aug - 01:20:08 10° WNW 01:22:44 20° N 01:25:21 10° NE visible
01 Aug - 02:57:38 10° NW 03:00:19 21° N 03:02:59 10° ENE visible
01 Aug - 04:34:09 10° NW 04:37:31 65° NNE 04:40:52 10° ESE visible
01 Aug - 06:11:38 10° W 06:13:56 17° SW 06:16:14 10° S daylight
01 Aug - 21:19:16 10° SSE 21:20:38 12° SE 21:22:00 10° ESE visible
01 Aug - 22:53:33 10° WSW 22:56:54 88° NW 23:00:16 10° ENE visible
02 Aug - 00:31:12 10° WNW 00:34:00 24° NNW 00:36:48 10° NE visible
02 Aug - 02:09:01 10° NW 02:11:33 19° N 02:14:05 10° NE visible
02 Aug - 03:45:40 10° NW 03:48:55 43° NNE 03:52:09 10° E visible
02 Aug - 05:22:36 10° WNW 05:25:33 29° SW 05:28:30 10° SSE visible
02 Aug - 22:05:09 10° SW 22:08:25 54° SE 22:11:42 10° ENE visible
02 Aug - 23:42:19 10° W 23:45:18 29° NNW 23:48:19 10° NE visible
